Regional Weather Roundup
Issued by NWS

Home | Current Version | Previous Version | Text Only | Print | Product List | Glossary Off
Versions: 1 2 3 4 5 6 7 8 9 10 11 12 13 14 15 16 17 18 19 20 21 22 23 24 25 26 27

000
ASUS45 KCYS 211310
RWRWY

WYOMING REGIONAL WEATHER ROUNDUP
NATIONAL WEATHER SERVICE CHEYENNE WY
600 AM MST SAT JAN 21 2017

NOTE:  "FAIR" INDICATES FEW OR NO CLOUDS BELOW 12,000 FEET
WITH NO SIGNIFICANT WEATHER AND/OR OBSTRUCTIONS TO VISIBILITY.

WYZ001-211400-
YELLOWSTONE NATIONAL PARK

CITY           SKY/WX    TMP DP  RH WIND       PRES   REMARKS
LK YELLOWSTONE   N/A      7   5  91 CALM      29.32S
W YELLOWSTONE  NOT AVBL

$$
WYZ002>013-054>058-071-098>099-211400-
NORTHERN WYOMING

CITY           SKY/WX    TMP DP  RH WIND       PRES   REMARKS
JACKSON        CLOUDY    16  14  93 N5        29.34R WCI   9
CODY           CLOUDY    16  10  77 S3        29.33S
GREYBULL       FOG        6   3  87 SE3       29.38F VSB 1/2
WORLAND        CLOUDY     6   5  95 CALM      29.37R FOG
SHERIDAN       FAIR      13   9  84 SW8       29.34R WCI   2
BUFFALO        FAIR      27  17  66 CALM      29.33S
GILLETTE       FAIR      16  13  88 CALM      29.34R
HULETT         FAIR      27  27 100 SW6       29.36R WCI  20
NEWCASTLE      FAIR      28  27  93 N5        29.35F WCI  23

$$
WYZ014>020-022>026-101>103-211400-
CENTRAL WYOMING

CITY           SKY/WX    TMP DP  RH WIND       PRES   REMARKS
BIG PINEY      CLOUDY     7   4  87 CALM      29.33S
PINEDALE       PTSUNNY    9   7  92 W6        29.33S WCI  -1
DUBOIS         NOT AVBL
LANDER         FAIR      11   8  88 CALM      29.33S
RIVERTON       FOG       10   8  92 W7        29.34S VSB 1/2 WCI  -1
CASPER         FAIR      19  15  84 W9        29.33R WCI   8
DOUGLAS        FAIR      12   8  84 SE3       29.35S

$$
WYZ021-027>030-104>119-211400-
SOUTHERN WYOMING

CITY           SKY/WX    TMP DP  RH WIND       PRES   REMARKS
EVANSTON       LGT SNOW  16  12  84 E9        29.28R FOG     WCI   4
ROCK SPRINGS   FAIR      15  12  88 NE6       29.30S WCI   6
RAWLINS        FAIR      10   5  80 CALM      29.33S
LARAMIE        FAIR       5   2  87 S10       29.33R WCI -10
CHEYENNE       FAIR      19  16  88 NW3       29.35R
TORRINGTON     FAIR      20  16  84 CALM      29.37R

$$




USA.gov is the U.S. government's official web portal to all federal, state and local government web resources and services.